ASTRA SATELLITE 00001 (49494 NORAD) Tracking and Keplerian Element Data

This shows tracking and keplerian element data for the satellite.

Feedback or suggestion? Click here.




ElementValue
Catalog49494
NameASTRA SATELLITE 00001
Epoch Orbit865
Epoch Day15.86161735
Epoch Year2022
RAAN158.2243
Inclination86.0091
Eccentricity0.0050101
Argument of Perigee77.1628
Mean Anonmoly283.5211
Mean Motion15.31020626
Decay Rate0.00013015
L11 49494U 21108A 22015.86161735 .00013015 00000+0 41633-3 0 9998
L22 49494 86.0091 158.2243 0050101 77.1628 283.5211 15.31020626 8656

Live tracking and technical data element details for ASTRA SATELLITE 00001 (NORAD 49494). ASTRA SATELLITE 00001 can be tracked NOW for your location showing map with azimuth and elevation plus other details from your city location.

Track the satellite on the map from your city or location and see movement details for azimuth, elevation, latitude, longitude, range, height, and movement on the map or in text.







IsCatalogInMostPopularTable: catalog: 49494, numindb: 6
Update: records affected: 1



GetName: 49494 ASTRA SATELLITE 00001

Hit Count: updated at: Thu, 20 Jan 2022 16:32:21 GMT